• In Uzbekistan
  • List of Countries
  • For 7 days
  • Water Temperature
  • Satellite Maps
  • Weather Map
  • Weather Widgets
  • user-avatar
    Login

    Hourly Weather Annaba

    Today, 23 July, Sunday

    Time Temperature Precipitation Wind Pressure Humidity
    00:00 +35°C° 0.1 mm 3 mps 760 mmHg 48%
    01:00 +35°C° 0.1 mm 3 mps 761 mmHg 42%
    02:00 +35°C° 0 mm 3 mps 760 mmHg 41%
    03:00 +35°C° 0 mm 3 mps 760 mmHg 41%
    04:00 +35°C° 0 mm 3 mps 760 mmHg 40%
    05:00 +35°C° 0 mm 3 mps 760 mmHg 41%
    06:00 +35°C° 0 mm 3 mps 760 mmHg 43%
    07:00 +35°C° 0 mm 2 mps 760 mmHg 44%
    08:00 +37°C° 0 mm 3 mps 760 mmHg 39%
    09:00 +39°C° 0 mm 3 mps 761 mmHg 35%
    10:00 +43°C° 0 mm 3 mps 761 mmHg 30%
    11:00 +43°C° 0 mm 4 mps 761 mmHg 30%
    12:00 +44°C° 0 mm 4 mps 761 mmHg 29%
    13:00 +44°C° 0 mm 4 mps 761 mmHg 32%
    14:00 +43°C° 0 mm 4 mps 760 mmHg 32%
    15:00 +43°C° 0 mm 4 mps 760 mmHg 31%
    16:00 +43°C° 0 mm 4 mps 760 mmHg 31%
    17:00 +42°C° 0 mm 3 mps 760 mmHg 33%
    18:00 +40°C° 0 mm 3 mps 760 mmHg 34%
    19:00 +39°C° 0 mm 3 mps 760 mmHg 36%
    20:00 +38°C° 0 mm 3 mps 760 mmHg 38%
    21:00 +37°C° 0 mm 3 mps 760 mmHg 40%
    22:00 +36°C° 0 mm 3 mps 760 mmHg 42%
    23:00 +36°C° 0.1 mm 3 mps 760 mmHg 42%

    Tomorrow, 24 July, Monday

    Time Temperature Precipitation Wind Pressure Humidity
    00:00 +36°C° 0.1 mm 4 mps 760 mmHg 41%
    01:00 +36°C° 0.1 mm 5 mps 760 mmHg 41%
    02:00 +35°C° 0 mm 5 mps 759 mmHg 44%
    03:00 +34°C° 0 mm 4 mps 759 mmHg 47%
    04:00 +33°C° 0 mm 4 mps 759 mmHg 50%
    05:00 +33°C° 0 mm 3 mps 759 mmHg 52%
    06:00 +33°C° 0 mm 3 mps 759 mmHg 54%
    07:00 +33°C° 0 mm 3 mps 759 mmHg 56%
    08:00 +34°C° 0 mm 3 mps 759 mmHg 53%
    09:00 +35°C° 0 mm 3 mps 759 mmHg 50%
    10:00 +36°C° 0 mm 4 mps 759 mmHg 47%
    11:00 +36°C° 0 mm 4 mps 759 mmHg 47%
    12:00 +37°C° 0 mm 4 mps 759 mmHg 47%
    13:00 +37°C° 0 mm 5 mps 759 mmHg 47%
    14:00 +36°C° 0 mm 4 mps 759 mmHg 50%
    15:00 +35°C° 0 mm 4 mps 758 mmHg 53%
    16:00 +33°C° 0 mm 4 mps 758 mmHg 57%
    17:00 +33°C° 0 mm 4 mps 758 mmHg 60%
    18:00 +32°C° 0 mm 4 mps 758 mmHg 62%
    19:00 +30°C° 0 mm 4 mps 759 mmHg 65%
    20:00 +29°C° 0 mm 3 mps 759 mmHg 71%
    21:00 +28°C° 0 mm 3 mps 760 mmHg 76%
    22:00 +27°C° 0 mm 2 mps 761 mmHg 82%
    23:00 +26°C° 0 mm 2 mps 760 mmHg 84%

    Day after tomorrow, 25 July, Tuesday

    Time Temperature Precipitation Wind Pressure Humidity
    00:00 +26°C° 0 mm 2 mps 760 mmHg 87%
    01:00 +25°C° 0 mm 2 mps 760 mmHg 89%
    02:00 +25°C° 0 mm 2 mps 760 mmHg 89%
    03:00 +25°C° 0 mm 2 mps 759 mmHg 90%
    04:00 +24°C° 0 mm 2 mps 759 mmHg 90%
    05:00 +25°C° 0 mm 2 mps 759 mmHg 87%
    06:00 +25°C° 0 mm 2 mps 759 mmHg 83%
    07:00 +25°C° 0 mm 2 mps 759 mmHg 80%
    08:00 +27°C° 0 mm 2 mps 759 mmHg 71%
    09:00 +29°C° 0 mm 2 mps 759 mmHg 63%
    10:00 +30°C° 0 mm 3 mps 759 mmHg 54%
    11:00 +31°C° 0 mm 3 mps 758 mmHg 50%
    12:00 +33°C° 0 mm 4 mps 758 mmHg 47%
    13:00 +34°C° 0 mm 5 mps 758 mmHg 43%
    14:00 +34°C° 0 mm 5 mps 757 mmHg 45%
    15:00 +33°C° 0 mm 5 mps 757 mmHg 48%
    16:00 +33°C° 0 mm 5 mps 757 mmHg 50%
    17:00 +32°C° 0 mm 5 mps 757 mmHg 55%
    18:00 +30°C° 0 mm 4 mps 757 mmHg 59%
    19:00 +28°C° 0 mm 3 mps 757 mmHg 64%
    20:00 +27°C° 0 mm 3 mps 758 mmHg 69%
    21:00 +26°C° 0 mm 3 mps 758 mmHg 73%
    22:00 +26°C° 0 mm 3 mps 758 mmHg 78%
    23:00 +25°C° 0 mm 2 mps 758 mmHg 79%

    26 July, Wednesday

    Time Temperature Precipitation Wind Pressure Humidity
    00:00 +25°C° 0 mm 2 mps 758 mmHg 81%
    01:00 +25°C° 0 mm 2 mps 758 mmHg 82%
    02:00 +24°C° 0 mm 2 mps 758 mmHg 83%
    03:00 +24°C° 0 mm 3 mps 758 mmHg 85%
    04:00 +24°C° 0 mm 3 mps 758 mmHg 86%
    05:00 +24°C° 0 mm 3 mps 758 mmHg 83%
    06:00 +24°C° 0 mm 3 mps 758 mmHg 80%
    07:00 +25°C° 0 mm 2 mps 758 mmHg 77%
    08:00 +27°C° 0 mm 2 mps 758 mmHg 67%
    09:00 +28°C° 0 mm 2 mps 758 mmHg 57%
    10:00 +30°C° 0 mm 2 mps 758 mmHg 47%
    11:00 +31°C° 0 mm 3 mps 758 mmHg 44%
    12:00 +33°C° 0 mm 4 mps 758 mmHg 41%
    13:00 +34°C° 0 mm 5 mps 758 mmHg 38%
    14:00 +33°C° 0 mm 5 mps 758 mmHg 41%
    15:00 +33°C° 0 mm 5 mps 757 mmHg 43%
    16:00 +33°C° 0 mm 5 mps 757 mmHg 45%
    17:00 +30°C° 0 mm 5 mps 757 mmHg 51%
    18:00 +29°C° 0 mm 4 mps 757 mmHg 56%
    19:00 +28°C° 0 mm 4 mps 757 mmHg 61%
    20:00 +27°C° 0 mm 3 mps 758 mmHg 66%
    21:00 +26°C° 0 mm 2 mps 758 mmHg 71%
    22:00 +25°C° 0 mm 2 mps 759 mmHg 76%
    23:00 +25°C° 0 mm 2 mps 759 mmHg 78%

    27 July, Thursday

    Time Temperature Precipitation Wind Pressure Humidity
    00:00 +24°C° 0 mm 2 mps 759 mmHg 79%
    01:00 +24°C° 0 mm 2 mps 759 mmHg 81%
    02:00 +24°C° 0 mm 2 mps 758 mmHg 81%
    03:00 +23°C° 0 mm 2 mps 758 mmHg 81%
    04:00 +23°C° 0 mm 2 mps 758 mmHg 81%
    05:00 +24°C° 0 mm 2 mps 758 mmHg 76%
    06:00 +24°C° 0 mm 2 mps 759 mmHg 71%
    07:00 +25°C° 0 mm 2 mps 759 mmHg 66%
    08:00 +27°C° 0 mm 2 mps 759 mmHg 57%
    09:00 +29°C° 0 mm 3 mps 759 mmHg 47%
    10:00 +31°C° 0 mm 3 mps 759 mmHg 38%
    11:00 +33°C° 0 mm 4 mps 759 mmHg 35%
    12:00 +34°C° 0 mm 4 mps 759 mmHg 32%
    13:00 +35°C° 0 mm 5 mps 759 mmHg 30%
    14:00 +35°C° 0 mm 5 mps 759 mmHg 31%
    15:00 +34°C° 0 mm 5 mps 759 mmHg 33%
    16:00 +34°C° 0 mm 5 mps 759 mmHg 34%
    17:00 +33°C° 0 mm 4 mps 759 mmHg 38%
    18:00 +32°C° 0 mm 4 mps 759 mmHg 43%
    19:00 +30°C° 0 mm 3 mps 759 mmHg 47%
    20:00 +29°C° 0 mm 2 mps 760 mmHg 53%
    21:00 +27°C° 0 mm 1 mps 760 mmHg 59%
    22:00 +26°C° 0 mm 1 mps 761 mmHg 64%
    23:00 +26°C° 0 mm 1 mps 761 mmHg 64%

    28 July, Friday

    Time Temperature Precipitation Wind Pressure Humidity
    00:00 +26°C° 0 mm 1 mps 760 mmHg 64%
    01:00 +25°C° 0 mm 1 mps 760 mmHg 64%
    02:00 +25°C° 0 mm 1 mps 760 mmHg 63%
    03:00 +25°C° 0 mm 1 mps 760 mmHg 61%
    04:00 +25°C° 0 mm 1 mps 760 mmHg 60%
    05:00 +26°C° 0 mm 1 mps 760 mmHg 56%
    06:00 +27°C° 0 mm 1 mps 760 mmHg 52%
    07:00 +27°C° 0 mm 1 mps 761 mmHg 49%
    08:00 +29°C° 0 mm 1 mps 761 mmHg 43%
    09:00 +32°C° 0 mm 1 mps 761 mmHg 38%
    10:00 +35°C° 0 mm 2 mps 761 mmHg 32%
    11:00 +35°C° 0 mm 2 mps 761 mmHg 32%
    12:00 +36°C° 0 mm 3 mps 761 mmHg 31%
    13:00 +37°C° 0 mm 4 mps 761 mmHg 30%
    14:00 +37°C° 0 mm 4 mps 761 mmHg 32%
    15:00 +37°C° 0 mm 4 mps 761 mmHg 34%
    16:00 +36°C° 0 mm 4 mps 760 mmHg 36%
    17:00 +35°C° 0 mm 4 mps 761 mmHg 40%
    18:00 +34°C° 0 mm 3 mps 761 mmHg 44%
    19:00 +31°C° 0 mm 2 mps 761 mmHg 47%
    20:00 +30°C° 0 mm 2 mps 761 mmHg 52%
    21:00 +29°C° 0 mm 2 mps 762 mmHg 57%
    22:00 +28°C° 0 mm 1 mps 762 mmHg 62%
    23:00 +27°C° 0 mm 1 mps 762 mmHg 62%
    Show more